User: anonymous   Login
Location: Pleiades Observatory
(40.1297°N, 91.5238°W)
Time: 11:26:21
(UTC-05:00)
Language:

Cosmos 1842 Rocket - Orbit

View from above orbital plane
View from above orbital plane
View from above satellite
View from above satellite

Ground track
Ground track

The orbit data is extracted from the following two-line orbital elements,

1 17912U 87038B   14303.89898290  .00000424  00000-0  49711-4 0  5037
2 17912 082.5045 231.1289 0021639 149.1220 211.1272 14.82479105485422
Epoch (UTC): 30 October 2014 21:34:32
Eccentricity: 0.0021639
inclination: 82.5045°
perigee height: 606 km
apogee height: 636 km
right ascension of ascending node: 231.1289°
argument of perigee: 149.1220°
revolutions per day: 14.82479105
mean anomaly at epoch: 211.1272°
orbit number at epoch: 48542

The dashed part of the orbit path shows where the satellite is in the earth's shadow,  

DLR